User: anonymous   Login
Location: Unspecified
(0.0000°N, 0.0000°E)
Time: 00:33:49
(UTC+00:00)
Language:

OPTUS 1C - Orbit

View from above orbital plane
View from above orbital plane
View from above satellite
View from above satellite

Ground track
Ground track

The orbit data is extracted from the following two-line orbital elements,

1 27831U 03028B   15057.65871164 -.00000174  00000-0  00000+0 0  9992
2 27831 000.0204 173.9398 0002591 141.6769 233.6743 01.00271805 42929
Epoch (UTC): 26 February 2015 15:48:32
Eccentricity: 0.0002591
inclination: 0.0204°
perigee height: 35775 km
apogee height: 35797 km
right ascension of ascending node: 173.9398°
argument of perigee: 141.6769°
revolutions per day: 1.00271805
mean anomaly at epoch: 233.6743°
orbit number at epoch: 4292

The dashed part of the orbit path shows where the satellite is in the earth's shadow,  

DLR